Temp
-6 -7 -6 -6 -6 -6 -6 -6 -6 -6 -5 -5 -5 -5 -5 -5 -5 -5 -5 -5 -4 -4 -4 -4 -4 -4 -5 -5 -5 -5 -5 -5 -4 -4 -4 -4 -3 -3 -4 -4 -4 -5 -5 -4 -4
-7 -7 -6 -6 -6 -6 -6 -6 -6 -6 -5 -5 -5 -5 -5 -5 -5 -5 -5 -4 -4 -4 -4 -4 -4 -4 -4 -5 -5 -5 -5 -5 -5 -4 -4 -4 -3 -3 -3 -3 -3 -4 -4 -4 -4
-7 -7 -6 -6 -6 -6 -6 -6 -6 -6 -5 -5 -5 -5 -5 -5 -5 -5 -5 -5 -5 -4 -4 -4 -4 -4 -4 -5 -5 -5 -5 -4 -5 -4 -4 -4 -4 -3 -3 -3 -3 -3 -4 -4 -4
-7 -7 -6 -6 -6 -6 -6 -6 -6 -6 -5 -5 -5 -5 -5 -5 -5 -4 -5 -5 -5 -5 -4 -4 -4 -4 -4 -4 -5 -5 -5 -5 -5 -4 -4 -4 -3 -3 -3 -3 -3 -3 -4 -4 -4
-7 -7 -6 -6 -6 -6 -6 -6 -6 -6 -6 -5 -6 -6 -5 -5 -5 -5 -5 -5 -5 -4 -4 -4 -4 -5 -4 -4 -4 -4 -5 -5 -5 -4 -4 -4 -4 -3 -3 -3 -3 -3 -4 -4 -4
-7 -7 -6 -6 -6 -6 -6 -6 -6 -6 -6 -6 -6 -6 -5 -5 -5 -5 -5 -5 -6 -4 -4 -4 -4 -5 -5 -5 -5 -5 -5 -5 -5 -5 -5 -4 -4 -4 -4 -4 -3 -3 -4 -4 -4
-7 -7 -6 -6 -6 -6 -6 -6 -6 -6 -6 -6 -6 -6 -5 -5 -5 -5 -5 -5 -6 -5 -4 -4 -4 -4 -4 -4 -4 -4 -5 -5 -5 -5 -5 -5 -5 -5 -4 -3 -3 -4 -4 -4 -4
-7 -7 -6 -6 -6 -6 -6 -6 -6 -6 -6 -6 -6 -6 -5 -5 -5 -5 -6 -6 -5 -4 -4 -5 -5 -4 -4 -4 -4 -4 -4 -4 -5 -5 -5 -5 -5 -5 -5 -4 -4 -4 -4 -4 -4
-7 -7 -6 -6 -6 -6 -6 -6 -6 -6 -6 -6 -6 -6 -5 -5 -5 -5 -5 -5 -5 -5 -5 -5 -5 -4 -4 -4 -5 -4 -4 -5 -5 -4 -4 -4 -5 -5 -5 -5 -4 -4 -4 -4 -5
-7 -7 -6 -6 -6 -6 -6 -6 -6 -6 -6 -6 -6 -5 -5 -5 -4 -5 -5 -5 -5 -5 -5 -5 -5 -5 -5 -5 -5 -5 -5 -5 -5 -5 -4 -5 -5 -4 -5 -5 -5 -4 -5 -5 -5
-7 -7 -6 -6 -6 -6 -6 -6 -6 -5 -5 -5 -5 -5 -5 -5 -5 -5 -5 -5 -5 -5 -5 -5 -6 -6 -5 -5 -5 -5 -5 -5 -5 -5 -5 -5 -5 -4 -5 -5 -5 -5 -5 -5 -5
-7 -6 -6 -6 -6 -6 -6 -6 -6 -5 -5 -5 -5 -5 -5 -5 -5 -5 -5 -5 -5 -5 -5 -5 -6 -6 -6 -5 -5 -5 -5 -5 -6 -5 -5 -5 -5 -4 -5 -5 -5 -5 -5 -5 -5
-6 -6 -6 -6 -6 -6 -6 -6 -6 -5 -6 -5 -5 -5 -5 -5 -5 -5 -5 -5 -5 -5 -5 -5 -6 -6 -5 -5 -6 -6 -6 -6 -6 -6 -5 -5 -6 -5 -5 -5 -5 -5 -5 -5 -5
-6 -6 -6 -6 -6 -6 -6 -6 -6 -5 -6 -5 -5 -5 -5 -5 -5 -5 -5 -4 -4 -5 -4 -5 -6 -6 -5 -6 -6 -6 -6 -6 -6 -6 -6 -6 -7 -6 -6 -5 -5 -5 -6 -5 -5
-7 -6 -6 -6 -6 -6 -6 -6 -6 -5 -6 -5 -5 -5 -5 -4 -4 -4 -5 -5 -4 -5 -5 -6 -6 -6 -5 -5 -6 -6 -6 -6 -6 -6 -6 -6 -6 -6 -6 -6 -6 -6 -6 -6 -6
-7 -7 -6 -6 -6 -6 -6 -6 -6 -5 -5 -5 -5 -4 -4 -4 -4 -4 -4 -4 -4 -4 -5 -6 -6 -6 -6 -6 -5 -6 -6 -6 -6 -6 -5 -6 -6 -6 -7 -7 -7 -6 -7 -7 -6
-7 -7 -7 -6 -6 -6 -6 -6 -6 -6 -5 -5 -5 -4 -5 -5 -5 -5 -5 -4 -4 -5 -5 -6 -6 -6 -6 -6 -6 -6 -6 -5 -6 -5 -6 -6 -6 -6 -7 -7 -7 -7 -7 -7 -6
-7 -7 -7 -7 -6 -6 -6 -6 -6 -5 -5 -5 -5 -4 -4 -4 -4 -4 -5 -4 -4 -4 -5 -7 -7 -5 -5 -6 -6 -6 -6 -6 -6 -5 -6 -6 -6 -6 -7 -7 -7 -7 -7 -7 -7
-7 -7 -7 -7 -7 -6 -6 -6 -6 -6 -5 -5 -5 -5 -4 -4 -4 -4 -4 -5 -5 -5 -6 -7 -7 -6 -6 -6 -6 -7 -7 -6 -7 -6 -6 -6 -7 -7 -7 -7 -7 -7 -7 -7 -7
-8 -8 -8 -7 -7 -7 -6 -6 -6 -6 -5 -5 -5 -5 -5 -5 -4 -4 -5 -5 -5 -5 -6 -6 -7 -6 -6 -6 -6 -6 -6 -7 -6 -7 -6 -6 -7 -6 -7 -7 -7 -7 -7 -7 -7
-8 -8 -8 -8 -7 -7 -7 -6 -6 -6 -6 -5 -5 -5 -5 -5 -5 -7 -7 -6 -6 -6 -6 -7 -7 -7 -7 -7 -7 -7 -7 -6 -7 -7 -7 -6 -6 -7 -6 -6 -7 -7 -7 -7 -7
-8 -8 -8 -8 -7 -7 -7 -7 -6 -6 -6 -6 -6 -5 -5 -5 -5 -5 -6 -6 -7 -7 -7 -7 -7 -7 -8 -6 -6 -6 -6 -7 -7 -7 -7 -6 -7 -6 -6 -6 -6 -6 -6 -6 -6
-8 -8 -8 -7 -7 -8 -7 -7 -7 -7 -7 -6 -6 -6 -6 -6 -6 -6 -6 -7 -7 -7 -7 -7 -7 -7 -7 -7 -7 -6 -6 -6 -6 -6 -7 -7 -7 -7 -6 -5 -5 -5 -5 -5 -5
-8 -8 -8 -7 -7 -7 -8 -8 -7 -7 -6 -6 -6 -6 -7 -6 -6 -7 -7 -7 -7 -7 -7 -6 -8 -8 -7 -8 -7 -6 -7 -6 -6 -6 -7 -7 -7 -6 -5 -5 -5 -5 -6 -6 -6
-7 -8 -8 -7 -7 -7 -8 -7 -7 -7 -7 -7 -7 -7 -7 -7 -7 -7 -7 -6 -7 -7 -7 -7 -7 -7 -6 -6 -6 -6 -6 -6 -6 -6 -6 -6 -6 -6 -5 -6 -5 -5 -5 -5 -6
-7 -7 -7 -7 -7 -8 -8 -8 -7 -7 -7 -7 -7 -7 -7 -7 -7 -7 -7 -7 -7 -7 -7 -7 -7 -6 -5 -6 -7 -5 -6 -6 -6 -6 -6 -5 -6 -5 -5 -5 -6 -6 -6 -6 -6
-7 -7 -7 -7 -7 -7 -8 -8 -8 -8 -8 -8 -7 -8 -8 -7 -7 -7 -7 -7 -7 -7 -7 -7 -7 -6 -5 -5 -5 -5 -5 -5 -6 -6 -5 -5 -5 -5 -5 -6 -6 -6 -6 -6 -6
Height
5888 5888 5887 5887 5889 5893 5895 5897 5899 5903 5907 5911 5913 5916 5918 5919 5920 5922 5922 5923 5923 5925 5926 5925 5924 5924 5926 5927 5927 5927 5928 5928 5928 5927 5927 5927 5927 5926 5927 5928 5927 5927 5927 5927 5927
5887 5887 5887 5888 5890 5894 5896 5898 5901 5905 5909 5912 5914 5917 5918 5920 5921 5923 5924 5923 5924 5926 5926 5926 5925 5924 5928 5928 5929 5930 5930 5931 5931 5931 5931 5930 5930 5930 5929 5929 5929 5929 5929 5928 5928
5887 5887 5887 5889 5891 5895 5897 5899 5903 5906 5910 5913 5915 5918 5919 5920 5922 5924 5924 5925 5925 5926 5927 5926 5927 5928 5930 5930 5932 5932 5932 5932 5932 5933 5932 5932 5932 5931 5931 5929 5929 5929 5929 5929 5930
5886 5887 5887 5890 5892 5895 5897 5900 5905 5907 5910 5914 5916 5918 5919 5921 5925 5925 5926 5927 5927 5927 5928 5929 5929 5930 5931 5932 5933 5933 5933 5933 5934 5934 5933 5933 5932 5932 5931 5930 5930 5930 5929 5929 5930
5886 5886 5887 5890 5893 5896 5898 5902 5906 5908 5912 5915 5917 5919 5921 5923 5926 5926 5928 5929 5928 5927 5928 5929 5930 5932 5933 5934 5934 5934 5934 5934 5934 5934 5934 5933 5932 5931 5930 5930 5930 5930 5929 5930 5929
5885 5886 5887 5891 5894 5897 5900 5904 5906 5909 5913 5916 5918 5920 5922 5925 5926 5927 5928 5929 5927 5925 5927 5930 5932 5934 5934 5935 5936 5935 5935 5935 5935 5935 5934 5934 5934 5932 5931 5931 5930 5930 5929 5929 5930
5885 5886 5887 5891 5894 5898 5902 5905 5907 5911 5915 5917 5919 5920 5923 5926 5926 5929 5929 5930 5928 5930 5931 5931 5933 5933 5934 5934 5935 5936 5936 5936 5936 5935 5935 5935 5934 5933 5933 5932 5932 5930 5929 5930 5930
5884 5885 5887 5892 5895 5899 5903 5905 5908 5913 5916 5918 5919 5921 5924 5927 5928 5930 5930 5931 5932 5933 5933 5934 5935 5934 5934 5934 5936 5938 5938 5938 5937 5936 5935 5935 5936 5934 5934 5933 5932 5932 5931 5932 5932
5883 5885 5887 5892 5896 5900 5904 5907 5910 5914 5916 5919 5921 5923 5926 5928 5930 5931 5931 5932 5933 5934 5935 5936 5936 5936 5936 5936 5938 5939 5939 5939 5938 5937 5937 5937 5936 5935 5935 5934 5934 5933 5933 5933 5933
5883 5885 5887 5892 5896 5900 5904 5908 5912 5915 5917 5920 5922 5925 5927 5929 5932 5933 5933 5934 5934 5936 5937 5937 5938 5938 5940 5940 5941 5941 5942 5942 5940 5939 5938 5938 5937 5936 5935 5935 5935 5934 5934 5934 5934
5882 5884 5887 5892 5897 5900 5905 5909 5915 5917 5918 5921 5923 5925 5927 5930 5932 5934 5934 5936 5936 5937 5938 5939 5940 5943 5943 5943 5943 5942 5943 5943 5942 5941 5940 5939 5939 5937 5937 5936 5936 5935 5934 5934 5934
5882 5884 5888 5893 5897 5902 5906 5910 5914 5917 5919 5921 5923 5925 5927 5930 5931 5932 5934 5936 5937 5938 5939 5941 5942 5943 5944 5945 5945 5945 5946 5946 5944 5942 5942 5941 5941 5939 5939 5939 5938 5937 5936 5936 5935
5881 5884 5889 5894 5898 5903 5906 5910 5914 5917 5919 5923 5924 5926 5928 5931 5931 5933 5935 5936 5937 5939 5940 5940 5942 5943 5945 5946 5947 5947 5947 5947 5946 5945 5945 5945 5943 5942 5941 5941 5940 5939 5939 5938 5937
5880 5884 5889 5894 5900 5903 5906 5910 5914 5918 5921 5924 5924 5926 5929 5931 5932 5933 5935 5937 5937 5939 5940 5941 5942 5943 5944 5945 5946 5952 5947 5947 5947 5948 5952 5949 5950 5945 5943 5942 5941 5941 5940 5940 5939
5879 5883 5888 5893 5897 5902 5907 5910 5914 5918 5921 5925 5926 5928 5929 5931 5934 5933 5935 5937 5938 5939 5941 5943 5942 5943 5944 5944 5944 5945 5946 5947 5948 5948 5949 5948 5953 5946 5944 5944 5942 5941 5940 5940 5939
5877 5882 5886 5891 5895 5900 5905 5910 5914 5920 5921 5924 5926 5928 5930 5931 5933 5934 5936 5937 5938 5940 5941 5942 5942 5943 5943 5943 5944 5946 5947 5949 5950 5950 5952 5949 5951 5944 5945 5945 5944 5944 5943 5941 5939
5876 5880 5884 5888 5894 5899 5904 5909 5915 5917 5921 5924 5926 5927 5930 5932 5933 5934 5936 5938 5939 5941 5941 5943 5943 5942 5943 5944 5946 5947 5951 5957 5956 5956 5952 5949 5949 5942 5943 5944 5945 5944 5941 5939 5938
5875 5879 5883 5887 5893 5898 5903 5909 5912 5915 5919 5922 5924 5927 5930 5931 5933 5934 5935 5937 5939 5940 5942 5945 5943 5942 5944 5945 5946 5948 5950 5955 5954 5956 5954 5948 5950 5947 5944 5942 5941 5940 5939 5937 5935
5875 5878 5882 5887 5892 5897 5903 5907 5910 5914 5918 5921 5924 5926 5929 5931 5933 5934 5936 5937 5939 5940 5943 5944 5944 5943 5943 5944 5946 5947 5949 5948 5950 5948 5949 5950 5947 5945 5940 5939 5938 5937 5936 5933 5931
5874 5878 5882 5886 5891 5896 5900 5903 5909 5913 5917 5920 5923 5926 5928 5930 5932 5933 5935 5937 5938 5939 5940 5942 5945 5942 5943 5944 5944 5944 5945 5947 5949 5947 5948 5948 5944 5945 5937 5936 5934 5933 5932 5930 5927
5874 5878 5882 5886 5890 5894 5898 5903 5907 5912 5915 5918 5921 5925 5926 5928 5930 5933 5935 5936 5937 5938 5939 5940 5944 5944 5943 5941 5941 5942 5943 5940 5941 5941 5942 5944 5946 5937 5933 5931 5930 5928 5927 5925 5922
5874 5878 5882 5886 5891 5894 5897 5901 5907 5911 5915 5918 5922 5924 5926 5929 5930 5931 5933 5935 5936 5937 5938 5940 5943 5943 5941 5938 5938 5938 5937 5938 5938 5939 5936 5934 5935 5930 5928 5925 5923 5922 5920 5918 5916
5873 5879 5882 5886 5890 5894 5898 5902 5907 5910 5913 5917 5920 5923 5926 5928 5930 5930 5932 5934 5935 5936 5937 5938 5940 5942 5941 5938 5935 5934 5933 5933 5932 5931 5931 5930 5930 5925 5921 5920 5919 5917 5915 5912 5910
5873 5876 5880 5884 5889 5893 5897 5901 5905 5909 5912 5915 5918 5922 5925 5926 5928 5929 5932 5933 5933 5934 5934 5934 5936 5936 5939 5936 5931 5930 5929 5927 5928 5927 5926 5926 5923 5921 5917 5915 5912 5910 5907 5904 5902
5870 5875 5880 5883 5887 5891 5895 5900 5903 5907 5911 5915 5918 5920 5923 5926 5927 5929 5930 5931 5931 5930 5929 5929 5930 5930 5930 5928 5927 5927 5925 5923 5922 5921 5919 5919 5917 5915 5911 5908 5905 5902 5900 5896 5892
5868 5873 5877 5881 5885 5888 5889 5897 5902 5905 5910 5912 5916 5919 5921 5924 5927 5927 5927 5927 5926 5926 5925 5924 5924 5924 5925 5923 5921 5922 5921 5919 5918 5917 5914 5913 5911 5908 5905 5901 5897 5894 5889 5887 5883
5865 5869 5873 5878 5882 5888 5890 5893 5899 5903 5906 5910 5914 5917 5918 5920 5922 5923 5923 5923 5922 5921 5920 5920 5919 5918 5918 5917 5915 5916 5916 5915 5914 5912 5909 5907 5903 5900 5897 5894 5889 5885 5881 5876 5874
Wind_Speed
3 2 5 9 13 14 16 20 22 24 24 23 21 20 17 16 15 12 9 9 7 7 8 6 8 13 14 15 12 10 14 12 10 11 11 9 10 11 11 9 9 9 8 7 8
3 3 7 11 14 16 17 21 24 25 25 23 21 18 17 15 13 11 13 9 6 8 7 6 11 18 13 12 12 13 10 12 8 7 8 7 8 7 8 7 7 6 6 4 4
3 4 10 14 15 17 19 24 25 27 26 21 19 18 16 13 11 13 13 9 5 6 8 9 12 17 16 18 21 15 13 11 12 8 7 5 6 7 7 7 6 5 4 3 2
3 5 12 16 17 18 22 26 26 26 23 19 18 17 15 13 11 14 11 7 4 1 3 8 13 15 14 15 12 11 15 15 11 8 10 6 3 3 4 4 4 4 4 4 2
4 6 14 18 19 20 25 27 26 24 20 18 18 16 14 13 13 12 9 5 1 6 2 7 10 12 11 9 7 8 12 11 8 6 3 4 5 5 4 3 3 3 3 3 3
5 7 15 20 20 23 27 27 25 22 20 20 18 15 14 15 15 11 10 8 8 3 11 7 14 9 9 6 5 7 9 8 8 5 6 6 2 2 2 3 4 4 3 3 3
6 9 17 21 22 26 27 26 24 22 21 19 17 15 16 16 14 13 12 11 18 17 15 17 9 6 4 6 6 9 9 8 4 7 6 3 5 3 2 1 1 4 4 4 5
7 11 18 23 25 28 27 27 24 22 20 19 16 15 17 15 13 12 12 12 12 15 12 11 10 11 8 9 12 6 6 6 5 4 2 2 4 2 3 2 2 3 2 3 4
9 13 18 26 28 29 28 26 23 22 20 18 17 16 16 15 14 14 13 10 7 9 11 9 8 12 14 11 9 4 8 6 5 4 5 1 1 3 1 1 2 5 5 5 6
11 15 20 28 32 30 28 25 23 21 18 16 17 17 14 11 11 11 11 12 7 7 7 8 9 11 13 12 10 8 6 3 4 4 6 6 6 3 2 2 4 4 1 3 3
13 18 22 31 35 31 27 25 22 18 16 16 16 15 14 10 9 10 8 5 6 5 7 12 12 9 9 9 8 6 3 3 3 3 2 3 4 3 3 2 3 3 4 6 5
16 21 25 33 32 29 25 23 21 18 15 18 18 17 16 13 11 10 7 3 5 8 10 14 10 7 7 7 7 4 3 2 3 3 3 4 5 6 10 8 6 5 6 6 6
18 23 28 31 30 27 25 23 20 17 15 17 20 19 16 14 12 9 5 2 3 3 9 11 9 7 6 5 2 0 1 2 2 2 4 5 3 4 5 6 6 4 4 3 1
19 23 27 30 29 28 27 23 20 17 15 18 22 21 17 14 11 7 5 3 3 3 4 5 6 2 3 1 2 7 3 4 5 5 4 4 4 6 6 9 7 4 5 6 5
20 23 25 29 30 30 27 24 21 19 19 21 22 19 15 13 10 10 7 5 5 7 7 8 4 3 2 1 2 5 4 4 1 5 2 4 6 14 7 7 9 12 12 11 10
21 23 24 28 32 31 28 25 23 21 20 19 17 15 14 11 11 11 10 8 6 6 5 6 6 7 4 4 5 8 5 3 4 7 2 6 1 6 6 5 7 6 7 10 14
22 25 25 30 30 30 28 26 24 22 18 20 18 15 12 12 11 11 8 7 5 4 6 7 13 12 6 6 4 5 8 5 5 3 6 6 4 10 10 9 8 10 15 16 15
25 26 26 29 30 29 28 27 26 24 20 17 16 14 13 14 13 12 9 6 4 3 6 5 6 3 5 7 6 5 4 1 2 3 8 8 5 7 13 13 12 15 16 18 17
26 27 27 29 30 29 29 27 28 25 22 18 15 15 15 15 15 14 10 6 3 1 4 2 4 2 4 3 4 9 4 10 5 13 5 10 9 11 17 16 14 18 16 14 16
27 27 27 28 29 30 30 31 27 24 21 18 18 17 16 15 15 11 7 5 4 5 4 4 1 8 6 6 8 7 8 6 9 8 8 9 13 8 17 14 13 12 13 15 20
30 30 27 26 27 29 30 29 26 23 22 22 21 20 20 17 14 10 7 6 5 5 5 5 4 13 9 11 14 13 11 12 11 13 11 11 8 23 16 15 14 16 16 18 22
31 29 25 24 24 25 28 27 23 21 20 21 20 21 22 17 13 11 13 12 8 6 7 9 9 8 12 19 17 13 14 12 12 12 15 17 14 16 13 14 16 15 18 21 23
33 28 23 20 21 22 22 21 20 21 24 25 23 23 17 15 12 12 12 9 10 11 13 12 9 8 10 17 20 16 17 15 15 18 17 17 14 19 21 17 15 17 17 20 22
34 33 30 22 18 20 22 21 19 21 24 23 22 20 19 15 11 11 13 13 16 17 19 16 12 14 13 18 23 20 18 18 16 17 17 17 20 18 23 25 27 26 28 28 29
35 34 30 24 22 22 24 26 19 21 21 19 20 19 20 18 15 14 14 15 17 16 15 14 17 18 17 21 22 18 19 21 22 22 22 19 23 23 27 30 30 31 30 34 36
31 33 33 30 25 23 26 25 20 21 21 21 21 20 18 14 11 12 10 9 13 15 18 18 18 20 17 20 22 19 18 20 23 23 23 26 29 30 30 33 35 37 39 38 40
29 31 33 32 28 22 22 22 22 24 22 21 19 19 19 19 15 14 13 14 13 14 16 18 19 22 21 20 24 23 19 20 23 26 29 31 34 35 35 37 39 40 41 43 38
Wind_Direction
285 220 167 162 160 160 160 159 157 151 144 145 142 137 132 129 128 139 130 123 122 94 93 91 76 113 101 83 72 93 74 69 76 82 95 122 135 129 124 118 118 114 104 95 92
259 202 163 164 160 158 163 160 154 145 143 143 140 135 130 128 131 131 131 129 115 81 70 76 81 111 107 77 90 104 80 73 74 86 88 99 117 132 141 132 123 117 109 112 106
237 191 163 163 160 162 165 158 149 145 145 145 136 135 132 135 130 136 135 123 109 89 79 81 82 104 102 92 97 86 101 79 86 92 86 98 107 108 110 114 121 118 113 127 160
224 185 164 164 161 164 164 156 149 148 151 145 141 140 140 132 133 141 128 118 97 85 88 89 92 97 105 110 96 86 100 109 104 96 98 108 147 129 130 123 117 123 125 136 161
211 184 165 165 163 164 163 154 153 153 150 146 141 143 141 135 133 129 118 102 293 251 240 109 105 93 100 102 99 92 133 131 123 113 127 140 151 156 174 202 200 176 149 146 189
203 181 165 169 165 165 162 154 157 155 149 142 140 147 147 137 121 117 124 101 54 124 153 125 124 89 105 115 107 122 134 146 125 101 99 132 123 117 226 216 188 189 184 163 166
196 179 166 170 166 167 162 160 161 155 145 137 144 156 146 142 133 118 111 84 60 103 100 99 106 89 117 152 155 138 129 164 224 240 234 264 217 164 231 229 242 138 167 194 182
191 175 167 170 166 167 163 163 160 150 142 143 149 150 143 141 133 124 101 94 84 91 101 88 72 72 85 104 147 124 89 70 87 64 317 231 245 248 248 207 109 78 67 111 154
185 173 170 172 166 168 164 165 157 147 146 144 146 150 146 138 137 144 123 116 113 95 94 87 77 71 70 88 115 97 79 87 59 36 60 70 234 312 156 345 62 66 80 66 73
181 168 171 173 168 169 168 162 155 149 148 144 149 158 154 139 144 145 117 115 99 100 77 88 94 84 77 91 99 92 89 84 9 357 4 65 83 95 157 231 306 338 70 115 111
178 166 169 169 168 170 169 161 152 150 151 147 151 156 152 143 157 147 134 114 83 60 82 106 102 113 87 96 103 93 72 50 357 353 62 88 70 73 188 0 33 41 70 87 91
178 164 166 167 169 170 167 161 156 156 158 150 154 151 145 147 156 167 153 111 79 73 108 102 106 116 115 137 123 92 95 57 11 28 56 72 89 93 93 82 75 63 71 87 102
179 167 171 173 171 170 170 170 165 164 162 157 158 155 156 164 170 168 155 148 97 104 114 110 127 110 108 124 121 77 179 81 109 64 27 56 59 34 40 54 47 25 0 9 95
180 172 177 177 175 175 177 178 172 168 163 159 160 163 164 167 178 175 165 163 156 193 136 130 140 123 70 29 114 291 157 113 98 104 255 81 303 349 342 350 359 13 341 318 303
179 174 175 180 182 183 182 180 177 172 170 164 161 166 177 175 175 170 162 166 189 183 182 187 213 264 297 25 148 170 146 143 78 348 15 310 83 278 332 2 0 352 340 330 319
176 173 173 180 187 188 185 183 182 179 185 171 163 171 177 189 177 169 162 176 178 174 194 210 260 272 283 142 132 133 119 77 35 42 154 275 86 242 290 314 330 345 336 324 309
173 172 176 180 188 188 187 185 184 188 186 179 176 180 177 181 175 168 162 169 167 212 231 227 248 268 248 151 158 148 64 353 5 8 251 242 266 296 308 313 303 315 327 324 315
173 175 177 181 186 186 186 186 189 188 190 187 186 183 179 173 172 164 166 171 189 201 210 189 320 209 171 168 184 203 169 237 313 268 284 274 264 278 277 283 291 302 309 317 313
175 175 177 180 183 185 187 188 193 190 189 190 192 185 183 177 174 174 179 186 176 227 161 133 242 223 215 216 233 278 301 268 302 312 319 269 305 313 282 283 287 291 296 301 304
174 173 177 180 183 187 191 196 195 189 189 191 190 191 183 185 185 184 196 212 210 194 194 211 249 269 287 292 279 280 283 308 302 288 293 286 307 264 276 278 278 279 282 284 293
173 173 178 183 187 191 197 200 197 190 191 191 191 190 187 191 191 204 216 236 216 199 215 238 242 285 304 274 279 292 299 288 273 275 269 283 273 269 288 281 264 273 272 276 281
174 175 180 187 191 196 202 204 194 191 191 189 192 194 192 195 210 231 221 220 219 221 250 267 248 262 259 281 289 289 282 280 274 274 290 286 299 293 297 289 287 282 282 286 292
179 179 186 189 192 196 204 204 196 191 189 191 196 200 199 201 210 205 205 210 219 240 244 267 250 263 298 317 303 291 289 287 288 290 296 294 301 300 314 315 312 308 303 298 297
185 192 191 195 199 203 200 203 195 193 192 193 199 197 195 195 186 185 203 215 225 239 258 265 237 242 251 261 263 289 295 292 286 288 287 298 302 314 313 315 314 313 310 305 300
195 196 201 206 207 210 207 201 199 198 189 195 199 204 203 205 198 199 214 230 240 249 260 266 254 253 247 264 269 276 281 284 289 290 298 306 303 306 308 309 306 304 304 304 303
197 199 206 209 211 219 231 191 201 205 207 212 211 215 222 220 229 242 261 271 271 267 257 260 262 263 259 272 280 271 272 274 276 292 293 299 303 300 303 302 304 306 305 302 300
197 197 203 206 210 205 218 194 209 210 210 207 216 224 243 248 246 244 253 265 280 294 292 279 272 272 269 270 276 285 269 275 278 286 293 297 298 301 302 301 303 302 300 299 298